Total_Precipitation_Accumulation
1.90 2.12 2.43 2.92 3.71 4.44 5.12 5.23 5.46 4.97 4.32 3.76 3.36 3.26 3.07 2.77 2.67 2.53 2.35 2.20 1.99 1.86 2.01 1.86 1.89 1.76 1.81 1.83 1.94 2.13 2.22 1.92 2.07 2.48 2.07 1.47 1.17 1.14 0.99 0.94 0.99 1.01 1.06
1.99 2.36 2.90 3.29 3.31 3.84 4.55 4.60 4.30 4.05 3.59 3.20 3.02 2.85 2.79 2.48 2.30 2.17 2.15 1.95 1.79 1.77 1.76 1.85 1.73 1.68 1.76 1.76 1.83 2.02 2.01 1.77 1.98 2.41 2.50 1.97 1.58 1.29 0.94 0.93 0.96 1.08 1.26
1.88 2.31 2.72 3.16 3.13 3.50 3.59 3.22 3.06 3.12 3.04 2.87 2.75 2.63 2.60 2.41 2.15 1.96 1.94 1.79 1.59 1.58 1.56 1.53 1.59 1.68 1.51 1.63 1.80 1.95 2.07 1.93 1.84 2.10 2.50 2.28 1.91 1.59 1.26 1.15 1.23 1.35 1.48
1.34 1.63 1.96 2.38 2.58 2.67 2.59 2.55 2.52 2.55 2.73 2.73 2.49 2.31 2.01 1.89 1.82 1.71 1.75 1.75 1.53 1.45 1.43 1.40 1.54 1.61 1.55 1.72 1.52 1.63 1.91 2.08 1.89 1.87 1.93 1.95 2.13 2.12 1.75 1.38 1.28 1.40 1.53
1.03 1.17 1.27 1.48 1.76 2.02 2.08 2.07 2.33 2.42 2.44 2.42 2.36 2.34 2.07 1.87 1.82 1.94 2.12 2.02 1.72 1.44 1.28 1.34 1.48 1.55 1.57 1.64 1.61 1.71 1.70 1.76 1.79 1.81 1.80 1.89 2.09 2.00 1.94 1.74 1.54 1.49 1.37
0.78 0.98 1.03 1.06 1.20 1.35 1.48 1.59 1.85 2.06 2.13 2.10 2.10 2.14 2.12 2.07 1.88 1.83 1.87 1.77 1.62 1.45 1.28 1.30 1.50 1.55 1.57 1.58 1.62 1.62 1.57 1.63 1.71 1.76 1.78 1.91 1.91 1.87 1.98 1.85 1.65 1.60 1.36
0.61 0.81 0.80 0.84 0.95 0.98 1.09 1.27 1.47 1.63 1.75 1.83 1.88 1.93 2.10 2.02 1.80 1.61 1.63 1.58 1.42 1.32 1.30 1.29 1.55 1.64 1.63 1.62 1.68 1.66 1.63 1.72 1.78 1.79 1.83 1.86 1.81 1.82 1.97 1.96 1.72 1.64 1.48
0.55 0.62 0.57 0.58 0.73 0.80 0.88 1.04 1.17 1.25 1.36 1.58 1.79 1.76 1.86 1.72 1.58 1.70 1.61 1.48 1.28 1.30 1.51 1.63 1.64 1.61 1.65 1.68 1.88 1.74 1.74 1.81 1.84 1.76 2.03 1.98 1.82 1.98 2.15 2.26 2.31 2.07 1.89
0.52 0.50 0.44 0.45 0.49 0.54 0.62 0.79 1.06 1.15 1.19 1.27 1.49 1.58 1.57 1.57 1.63 1.76 1.71 1.58 1.49 1.37 1.54 1.69 1.76 1.68 1.66 1.76 1.96 1.90 1.94 2.04 1.97 1.97 2.18 2.11 1.99 2.00 2.02 2.20 2.45 2.53 2.32
0.58 0.61 0.45 0.40 0.42 0.42 0.51 0.62 0.80 1.01 1.20 1.19 1.19 1.23 1.46 1.53 1.64 1.68 1.58 1.56 1.52 1.50 1.55 1.53 1.56 1.54 1.54 1.66 1.95 1.96 2.02 2.17 2.13 2.10 2.12 2.12 2.01 2.06 2.02 2.10 2.40 2.64 2.66
0.50 0.55 0.39 0.32 0.36 0.39 0.47 0.60 0.74 1.01 1.19 1.10 1.12 1.24 1.40 1.50 1.55 1.68 1.66 1.58 1.54 1.57 1.51 1.47 1.48 1.46 1.39 1.48 1.67 1.80 1.99 2.11 2.17 2.14 2.17 2.16 2.24 2.27 2.13 2.20 2.32 2.49 2.65
0.52 0.54 0.45 0.47 0.50 0.54 0.58 0.68 0.77 0.90 1.02 1.06 1.16 1.22 1.32 1.40 1.43 1.47 1.55 1.62 1.58 1.63 1.60 1.54 1.52 1.40 1.38 1.48 1.61 1.76 1.93 2.07 2.18 2.28 2.35 2.15 2.20 2.32 2.24 2.23 2.25 2.34 2.58
0.61 0.58 0.60 0.67 0.64 0.65 0.74 0.81 0.86 0.88 0.99 1.16 1.17 1.13 1.20 1.19 1.24 1.31 1.38 1.51 1.56 1.60 1.64 1.65 1.58 1.52 1.56 1.65 1.72 1.78 1.92 2.05 2.13 2.22 2.21 2.15 2.26 2.17 2.20 2.26 2.23 2.21 2.26
0.59 0.53 0.58 0.62 0.66 0.68 0.72 0.80 0.86 0.91 0.99 1.01 1.02 1.06 1.09 1.13 1.23 1.33 1.36 1.40 1.39 1.46 1.49 1.49 1.56 1.60 1.65 1.70 1.70 1.70 1.74 1.82 1.90 1.89 1.80 1.73 1.79 1.86 2.00 2.00 2.00 2.06 2.13
0.54 0.45 0.45 0.54 0.64 0.70 0.71 0.77 0.84 0.92 1.04 1.06 1.04 1.09 1.15 1.15 1.19 1.22 1.22 1.24 1.32 1.34 1.50 1.53 1.62 1.68 1.65 1.56 1.61 1.62 1.54 1.72 1.69 1.56 1.50 1.51 1.60 1.63 1.70 1.63 1.70 1.85 1.93
0.55 0.53 0.52 0.59 0.64 0.65 0.67 0.68 0.68 0.78 0.96 1.05 1.15 1.24 1.23 1.13 1.16 1.17 1.15 1.19 1.31 1.41 1.50 1.56 1.67 1.69 1.54 1.58 1.62 1.64 1.62 1.68 1.64 1.56 1.50 1.39 1.40 1.39 1.42 1.46 1.51 1.63 1.76
0.51 0.58 0.63 0.65 0.64 0.63 0.60 0.60 0.60 0.73 1.01 1.11 1.13 1.27 1.34 1.24 1.29 1.32 1.31 1.31 1.36 1.46 1.55 1.68 1.74 1.70 1.72 1.62 1.50 1.53 1.52 1.58 1.63 1.64 1.63 1.38 1.22 1.32 1.30 1.43 1.40 1.36 1.42
0.50 0.58 0.59 0.60 0.61 0.61 0.63 0.64 0.66 0.72 0.97 1.14 1.20 1.40 1.55 1.44 1.45 1.45 1.47 1.50 1.54 1.59 1.71 1.76 1.68 1.65 1.67 1.59 1.35 1.29 1.21 1.32 1.44 1.53 1.58 1.57 1.47 1.44 1.46 1.51 1.50 1.43 1.41
0.59 0.61 0.64 0.65 0.71 0.77 0.80 0.80 0.88 0.99 1.13 1.24 1.35 1.56 1.75 1.79 1.74 1.69 1.77 1.81 1.81 1.84 1.90 1.95 1.90 1.79 1.76 1.57 1.26 1.15 1.12 1.26 1.34 1.39 1.39 1.38 1.30 1.31 1.24 1.27 1.34 1.35 1.32
0.65 0.76 0.86 0.84 0.85 0.93 0.93 0.97 1.08 1.27 1.40 1.41 1.41 1.52 1.72 1.79 1.77 1.76 1.90 2.04 2.06 2.04 2.07 1.97 1.83 1.74 1.72 1.63 1.33 1.16 1.13 1.28 1.36 1.45 1.44 1.39 1.32 1.28 1.14 1.10 1.18 1.18 1.18
0.66 0.72 0.74 0.83 0.94 1.04 1.11 1.21 1.26 1.33 1.37 1.37 1.39 1.49 1.71 1.99 1.94 1.95 2.01 2.13 2.18 2.20 2.21 2.11 2.00 1.87 1.82 1.78 1.46 1.30 1.24 1.33 1.39 1.34 1.35 1.32 1.29 1.09 0.99 0.98 1.04 1.08 1.08
0.70 0.70 0.69 0.80 0.96 1.14 1.31 1.35 1.33 1.36 1.43 1.43 1.46 1.55 1.78 1.88 1.94 2.05 2.10 2.22 2.31 2.31 2.27 2.27 2.13 2.05 1.97 1.72 1.45 1.26 1.25 1.34 1.44 1.44 1.40 1.36 1.22 0.98 0.87 0.78 0.75 0.79 0.79
0.74 0.81 0.81 0.87 0.97 1.11 1.32 1.45 1.45 1.45 1.43 1.40 1.40 1.49 1.63 1.70 1.83 1.92 1.86 1.91 2.01 2.02 2.05 2.09 2.05 2.05 2.14 2.00 1.57 1.27 1.20 1.27 1.38 1.52 1.59 1.39 1.21 1.07 0.93 0.86 0.78 0.70 0.67
0.87 0.89 0.90 0.92 0.98 1.06 1.24 1.37 1.36 1.39 1.42 1.36 1.30 1.40 1.59 1.70 1.77 1.83 1.80 1.86 1.91 1.95 2.01 2.03 1.98 2.00 2.14 2.13 1.81 1.48 1.29 1.20 1.18 1.22 1.25 1.17 1.11 1.00 0.89 0.81 0.72 0.64 0.67
0.90 0.86 0.86 0.89 0.91 0.97 1.16 1.31 1.33 1.37 1.45 1.41 1.35 1.41 1.52 1.62 1.76 1.81 1.84 1.84 1.84 1.80 1.81 1.83 1.79 1.79 1.91 1.91 1.68 1.48 1.33 1.21 1.17 1.18 1.23 1.21 1.20 1.10 1.00 0.93 0.88 0.86 0.88
0.89 0.91 0.93 0.93 0.90 0.97 1.11 1.23 1.40 1.56 1.59 1.50 1.45 1.40 1.38 1.44 1.52 1.59 1.55 1.47 1.42 1.40 1.36 1.37 1.29 1.28 1.44 1.43 1.19 1.06 1.08 1.07 1.04 1.05 1.13 1.21 1.25 1.20 1.13 1.08 1.02 1.03 1.00